Change the Weather History Date:

Wednesday, April 24, 2013

  Actual Average (KLXV) Record (KLXV)
Temperature  
Mean Temperature 21 °F -  
Max Temperature 30 °F 46 °F 63 °F (2012)
Min Temperature 12 °F 21 °F 1 °F (2013)
Degree Days  
Heating Degree Days 44 32  
Month to date heating degree days 836  
Since 1 July heating degree days 9819  
Cooling Degree Days 0 0  
Month to date cooling degree days 0  
Year to date cooling degree days 0  
Moisture  
Dew Point 2 °F    
Average Humidity 48    
Maximum Humidity 79    
Minimum Humidity 27    
Precipitation  
Precipitation 0.00 in 0.04 in 0.51 in (2003)
Month to date precipitation 0.86  
Year to date precipitation 3.12  
Sea Level Pressure  
Sea Level Pressure 30.17 in    
Wind  
Wind Speed 17 mph (WSW)    
Max Wind Speed 33 mph    
Max Gust Speed 120 mph    
Visibility 7 miles    
Events Snow    
T = Trace of Precipitation, MM = Missing Value Source: NWS Daily Summary

Daily Weather History Graph

Daily Weather History Graph

Search for Another Location

Airport or City:

Trip Planner

Search our weather history database for the weather conditions in past years. The results will help you decide how hot, cold, wet, or windy it might be!

Date:

Astronomy

Apr. 24, 2013 Rise Set
Actual Time 6:14 AM MDT 7:51 PM MDT
Civil Twilight 5:45 AM MDT 8:20 PM MDT
Nautical Twilight 5:11 AM MDT 8:54 PM MDT
Astronomical Twilight 4:35 AM MDT 9:31 PM MDT
Moon 6:58 PM MDT (4/24) 5:19 AM MDT (4/24)
Length of Visible Light 14h 34m
Length of Day
13h 37m
Waxing Gibbous, 98% of the Moon is Illuminated
Apr 24
Waxing Gibbous
Apr 25
Full
May 2
Last Quarter
May 9
New
May 17
First Quarter

Hourly Weather History & Observations

Time (MDT) Temp. Windchill Dew Point Humidity Pressure Visibility Wind Dir Wind Speed Gust Speed Precip Events Conditions
12:12 AM 12.2 °F -2.5 °F 3.2 °F 67% 30.11 in 10.0 mi SSW 12.7 mph - N/A   Clear
12:32 AM 12.2 °F -4.3 °F 3.2 °F 67% 30.11 in 10.0 mi South 16.1 mph - N/A   Clear
12:52 AM 12.2 °F - 1.4 °F 62% 30.11 in 10.0 mi North - - N/A   Clear
1:12 AM 12.2 °F -2.5 °F 1.4 °F 62% 30.11 in 10.0 mi SW 12.7 mph - N/A   Clear
1:32 AM 12.2 °F -3.7 °F 1.4 °F 62% 30.10 in 10.0 mi SSW 15.0 mph 24.2 mph N/A   Clear
1:52 AM 12.2 °F -5.3 °F 1.4 °F 62% 30.10 in 10.0 mi South 18.4 mph - N/A   Mostly Cloudy
2:12 AM 12.2 °F -1.8 °F -0.4 °F 57% 30.08 in 10.0 mi SW 11.5 mph - N/A   Scattered Clouds
2:32 AM 12.2 °F - -0.4 °F 57% 30.07 in 10.0 mi North - - N/A   Mostly Cloudy
2:52 AM 12.2 °F -2.5 °F -7.6 °F 41% 30.07 in 10.0 mi WSW 12.7 mph - N/A   Mostly Cloudy
3:12 AM 12.2 °F 2.9 °F -5.8 °F 45% 30.07 in 10.0 mi SW 5.8 mph - N/A   Clear
3:32 AM 12.2 °F -0.2 °F -7.6 °F 41% 30.07 in 10.0 mi SW 9.2 mph 19.6 mph N/A   Mostly Cloudy
4:12 AM 14.0 °F -0.2 °F -14.8 °F 27% 30.07 in 10.0 mi WSW 12.7 mph 66.7 mph N/A   Overcast
4:32 AM 14.0 °F -0.2 °F -13.0 °F 29% 30.06 in 10.0 mi WSW 12.7 mph 20.7 mph N/A   Overcast
4:52 AM 14.0 °F 0.5 °F -13.0 °F 29% 30.06 in 10.0 mi WSW 11.5 mph 20.7 mph N/A   Overcast
5:12 AM 14.0 °F - -11.2 °F 32% 30.07 in 10.0 mi North - - N/A   Overcast
5:32 AM 12.2 °F -3.1 °F -9.4 °F 38% 30.07 in 10.0 mi WSW 13.8 mph 21.9 mph N/A   Overcast
5:52 AM 14.0 °F -3.0 °F -9.4 °F 35% 30.07 in 10.0 mi WSW 18.4 mph 119.7 mph N/A   Overcast
6:12 AM 14.0 °F -2.5 °F -9.4 °F 35% 30.07 in 10.0 mi West 17.3 mph - N/A   Overcast
6:32 AM 14.0 °F -3.4 °F -4.0 °F 45% 30.08 in 10.0 mi West 19.6 mph 119.7 mph N/A   Overcast
6:52 AM 14.0 °F -3.0 °F 1.4 °F 57% 30.09 in 10.0 mi West 18.4 mph - N/A   Overcast
7:12 AM 14.0 °F -3.9 °F 3.2 °F 62% 30.10 in 2.5 mi West 20.7 mph 28.8 mph N/A Snow Light Snow
7:32 AM 14.0 °F -4.3 °F 5.0 °F 67% 30.11 in 3.0 mi West 21.9 mph - N/A   Haze
7:52 AM 14.0 °F -3.4 °F 6.8 °F 73% 30.12 in 3.0 mi West 19.6 mph - N/A   Haze
8:12 AM 14.0 °F -5.1 °F 6.8 °F 73% 30.11 in 2.5 mi West 24.2 mph 29.9 mph N/A Snow Light Snow
8:32 AM 14.0 °F -3.4 °F 6.8 °F 73% 30.12 in 3.0 mi West 19.6 mph 25.3 mph N/A   Haze
8:52 AM 14.0 °F -2.5 °F 8.6 °F 79% 30.12 in 2.0 mi West 17.3 mph - N/A   Haze
9:12 AM 17.6 °F 1.7 °F 10.4 °F 73% 30.14 in 1.5 mi West 18.4 mph 27.6 mph N/A   Haze
9:32 AM 17.6 °F 3.7 °F 10.4 °F 73% 30.15 in 1.5 mi West 13.8 mph 23.0 mph N/A Snow Light Snow
9:52 AM 19.4 °F 5.0 °F 10.4 °F 68% 30.15 in 1.5 mi West 16.1 mph 23.0 mph N/A Snow Light Snow
10:12 AM 19.4 °F - 12.2 °F 74% 30.15 in 2.5 mi North - - N/A Snow Light Snow
10:32 AM 19.4 °F 3.6 °F 12.2 °F 74% 30.15 in 2.0 mi West 19.6 mph - N/A Snow Light Snow
10:52 AM 19.4 °F 1.1 °F 10.4 °F 68% 30.15 in 1.8 mi West 27.6 mph 34.5 mph N/A Snow Light Snow
11:12 AM 19.4 °F 1.4 °F 6.8 °F 58% 30.16 in 1.2 mi West 26.5 mph 38.0 mph N/A Snow Light Snow
11:32 AM 19.4 °F -0.0 °F 5.0 °F 54% 30.16 in 0.2 mi West 32.2 mph 47.2 mph N/A Snow Snow
11:52 AM 21.2 °F 2.2 °F 5.0 °F 50% 30.17 in 0.2 mi West 33.4 mph 42.6 mph N/A Snow Light Snow
12:12 PM 21.2 °F - 5.0 °F 50% 30.18 in 0.8 mi North - - N/A Snow Light Snow
12:32 PM 23.0 °F 5.1 °F 5.0 °F 46% 30.19 in 1.5 mi West 31.1 mph 36.8 mph N/A   Haze
12:52 PM 24.8 °F 8.1 °F 8.6 °F 50% 30.19 in 2.5 mi WNW 28.8 mph 36.8 mph N/A   Haze
1:12 PM 23.0 °F 8.0 °F 8.6 °F 54% 30.20 in 3.0 mi WNW 20.7 mph 34.5 mph N/A   Haze
1:32 PM 23.0 °F 5.1 °F 5.0 °F 46% 30.21 in 0.8 mi West 31.1 mph 41.4 mph N/A Snow Light Snow
1:52 PM 24.8 °F 7.9 °F 5.0 °F 43% 30.20 in 1.5 mi West 29.9 mph 41.4 mph N/A   Haze
2:12 PM 26.6 °F 12.0 °F 5.0 °F 40% 30.22 in 2.5 mi West 23.0 mph 46.0 mph N/A Snow Light Snow
2:32 PM 26.6 °F 12.7 °F 5.0 °F 40% 30.22 in 4.0 mi West 20.7 mph 33.4 mph N/A   Haze
2:52 PM 26.6 °F 12.0 °F 5.0 °F 40% 30.22 in 2.0 mi West 23.0 mph 40.3 mph N/A Snow Light Snow
3:12 PM 26.6 °F 13.1 °F 6.8 °F 43% 30.22 in 4.0 mi WSW 19.6 mph 35.7 mph N/A   Haze
3:32 PM 26.6 °F 12.0 °F 5.0 °F 40% 30.21 in 3.0 mi West 23.0 mph 36.8 mph N/A   Haze
3:52 PM 28.4 °F 13.3 °F 5.0 °F 37% 30.21 in 7.0 mi West 27.6 mph 32.2 mph N/A   Scattered Clouds
4:12 PM 28.4 °F 13.5 °F 3.2 °F 34% 30.22 in 3.0 mi West 26.5 mph 34.5 mph N/A Snow Snow
4:32 PM 30.2 °F 19.3 °F 3.2 °F 32% 30.23 in 5.0 mi West 15.0 mph 33.4 mph N/A   Haze
4:52 PM 28.4 °F 15.1 °F 1.4 °F 31% 30.24 in 5.0 mi West 20.7 mph 36.8 mph N/A   Haze
5:12 PM 28.4 °F 14.4 °F -0.4 °F 29% 30.23 in 3.0 mi WNW 23.0 mph 35.7 mph N/A   Haze
5:32 PM 28.4 °F 15.8 °F 5.0 °F 37% 30.24 in 10.0 mi West 18.4 mph 24.2 mph N/A   Scattered Clouds
6:12 PM 28.4 °F 14.7 °F 6.8 °F 40% 30.25 in 10.0 mi West 21.9 mph 27.6 mph N/A   Scattered Clouds
6:32 PM 26.6 °F 11.7 °F 5.0 °F 40% 30.25 in 10.0 mi West 24.2 mph - N/A   Scattered Clouds
6:52 PM 26.6 °F 13.1 °F 5.0 °F 40% 30.26 in 10.0 mi West 19.6 mph 25.3 mph N/A   Clear
7:12 PM 26.6 °F 13.4 °F 5.0 °F 40% 30.26 in 10.0 mi West 18.4 mph 24.2 mph N/A   Clear
7:32 PM 24.8 °F 13.4 °F 5.0 °F 43% 30.27 in 10.0 mi West 12.7 mph 17.3 mph N/A   Clear
7:52 PM 23.0 °F 10.1 °F 5.0 °F 46% 30.27 in 10.0 mi West 15.0 mph 19.6 mph N/A   Clear
8:52 PM 23.0 °F 13.9 °F 5.0 °F 46% 30.29 in 10.0 mi WSW 8.1 mph - N/A   Clear
9:12 PM 23.0 °F 14.7 °F 3.2 °F 43% 30.30 in 10.0 mi SW 6.9 mph - N/A   Clear
9:32 PM 24.8 °F 16.9 °F 1.4 °F 36% 30.31 in 10.0 mi SSW 6.9 mph - N/A   Clear
9:52 PM 23.0 °F 14.7 °F 1.4 °F 39% 30.30 in 10.0 mi SSW 6.9 mph - N/A   Clear
10:12 PM 23.0 °F 14.7 °F 1.4 °F 39% 30.29 in 10.0 mi SW 6.9 mph - N/A   Clear
10:32 PM 23.0 °F 12.4 °F -0.4 °F 36% 30.29 in 10.0 mi SSW 10.4 mph - N/A   Clear
10:52 PM 23.0 °F 9.2 °F -0.4 °F 36% 30.28 in 10.0 mi South 17.3 mph - N/A   Clear
11:12 PM 23.0 °F 9.6 °F -2.2 °F 33% 30.28 in 10.0 mi South 16.1 mph - N/A   Clear
11:32 PM 23.0 °F - -4.0 °F 31% 30.28 in 10.0 mi North - - N/A   Clear
11:52 PM 23.0 °F 10.6 °F -4.0 °F 31% 30.27 in 10.0 mi South 13.8 mph 63.3 mph N/A   Clear